Location: Elbis Da??
(36.7833°N, 29.7167°E)
Time: 13:26:56
(UTC+00:00)

Daily predictions for brighter satellites

Satellite Brightness Start Highest point End
(mag) Time Altitude Azimuth Time Altitude Azimuth Time Altitude Azimuth
Meteor 1-31 Rocket 3.8 17:22:32 10° SE 17:25:25 25° ENE 17:28:17 10° NNE
Cosmos 1818 4.0 17:20:43 10° NW 17:26:08 67° WSW 17:31:30 10° SSE
Resurs 01 Rocket 2.9 17:23:16 10° S 17:27:23 42° W 17:31:33 10° NNW
Cosmos 1697 Rocket 4.0 17:23:27 10° N 17:27:52 23° ENE 17:32:15 10° ESE
SPOT 5 2.7 17:26:35 10° SSE 17:30:47 56° ENE 17:35:00 10° N
COSMOS 2455 4.3 17:25:27 10° NW 17:30:54 37° WSW 17:36:21 10° S
Terra 3.1 17:29:46 10° ESE 17:33:23 23° ENE 17:37:00 10° NNE
ASTEX 1 4.0 17:29:24 10° SE 17:33:57 39° ENE 17:38:32 10° N
Cosmos 2360 4.3 17:28:52 10° NNW 17:34:34 69° ENE 17:40:15 10° SSE
Cosmos 2151 Rocket 3.7 17:40:17 10° SSE 17:44:29 50° E 17:48:43 10° NNE
Okean 2 Rocket 3.6 17:42:31 10° SSE 17:46:38 38° E 17:50:48 10° NNE
ATLAS 5 CENTAUR R/B 4.0 17:43:54 10° WNW 17:47:47 24° WSW 17:52:16 10° SSW
Cosmos 44 Rocket 3.7 17:43:10 10° S 17:47:52 44° ESE 17:52:44 10° NE
Cosmos 2056 Rocket 4.1 17:42:58 10° SSW 17:48:19 66° WNW 17:53:41 10° NNE
Cosmos 1110 Rocket 4.3 17:43:34 10° S 17:48:35 47° ESE 17:53:39 10° NNE
Meteor 2-1 Rocket 4.5 17:45:12 10° SSE 17:50:39 48° E 17:56:02 10° NNE
Cosmos 1536 Rocket 4.0 17:51:44 10° N 17:55:52 41° E 17:59:12 15° SE
Cosmos 1980 Rocket 3.9 17:52:26 10° NNE 17:56:15 18° NE 17:59:34 11° E
USA 229 DEB 4.4 17:48:55 10° NNW 17:56:24 52° NE 18:03:05 16° SE
USA 229 4.5 17:48:58 10° NNW 17:56:26 51° NE 18:03:07 16° ESE
GEOS 3 Rocket 3.7 17:52:16 11° SE 17:57:21 88° SW 18:02:45 10° NW
Cosmos 1447 Rocket 4.5 17:55:28 10° N 18:01:38 89° W 18:07:45 10° S
CZ-4C R/B 1.3 17:58:17 10° SSW 18:02:03 72° ESE 18:06:41 10° NE
Okean O Rocket 3.2 18:01:30 15° E 18:03:14 19° ENE 18:06:17 10° NNE
ATLAS 2AS CENTAUR R/B 4.2 17:57:34 10° WSW 18:04:03 40° NW 18:10:27 10° NNE
CZ-4 R/B 1.0 18:02:27 11° SSE 18:05:51 89° ENE 18:09:29 10° NNW
CSL-04 Rocket 4.0 18:02:15 10° S 18:07:45 70° WSW 18:13:13 10° NNW
BREEZE-M DEB (TANK) 3.7 18:01:07 10° WSW 18:07:58 46° NW 18:10:39 10° NE
CZ-4B DEB 4.2 18:02:42 11° SSE 18:08:01 74° ENE 18:13:33 10° N
Cosmos 1833 Rocket 3.6 18:02:53 10° SW 18:08:21 53° WNW 18:13:50 10° NNE
CZ-4B R/B 4.0 18:04:26 10° S 18:08:22 76° WSW 18:12:23 10° NNW
Meteor 2-3 Rocket 3.9 18:04:09 10° N 18:09:38 52° ENE 18:13:46 18° SSE
ISS -3.4 18:06:29 10° WSW 18:09:48 65° NW 18:13:07 10° NE
CZ-4B R/B 3.5 18:06:04 16° SE 18:10:31 54° ENE 18:16:00 10° N
USA 306 2.3 18:07:01 10° SSW 18:10:40 49° SE 18:13:10 13° ENE
Cosmos 292 Rocket 4.2 18:12:05 10° N 18:16:40 45° ENE 18:19:01 25° SE
Milstar 3 3.4 18:10:47 10° WSW 18:17:09 46° S 18:22:53 20° ESE
Okean-O 3.8 18:15:40 22° ESE 18:17:11 27° ENE 18:20:50 10° NNE
Cosmos 2016 Rocket 4.4 18:13:59 15° SSE 18:18:44 43° E 18:24:33 10° NNE
MetOp-B 4.1 18:14:55 18° SSE 18:18:57 67° ENE 18:24:16 10° N
ARIANE 6 FM1 Upper Stage 4.1 18:15:31 10° NW 18:18:59 29° WSW 18:22:04 12° S
Spot 2 Rocket 4.2 18:17:45 23° ESE 18:20:05 35° ENE 18:24:37 10° N
Cosmos 2173 Rocket 3.9 18:14:34 10° S 18:20:39 80° E 18:26:50 10° N
Cosmos 1455 Rocket 3.5 18:19:32 25° SE 18:21:33 40° E 18:25:42 10° NNE
ADEOS 3.6 18:21:59 22° SSE 18:25:23 67° ENE 18:30:34 10° N
IUS-17 SRM-1 4.5 18:10:46 10° W 18:27:10 42° SSW 18:29:24 27° SE
Okean 1 Rocket 3.2 18:24:12 10° SSW 18:28:33 75° W 18:32:57 10° N
PAYLOAD B 4.3 18:26:22 16° S 18:30:54 80° WSW 18:36:26 10° NNW
SL-4 R/B 2.4 18:27:52 10° NW 18:31:37 48° NE 18:32:53 34° E
Cosmos 332 Rocket 4.1 18:27:14 10° NNW 18:31:57 64° WSW 18:35:06 20° S
Meteor 1-27 4.2 18:32:47 19° S 18:36:49 60° E 18:42:21 10° NNE
ERS-1 Rocket 3.3 18:37:18 17° S 18:41:07 62° W 18:46:05 10° NNW
ATLAS 3B R/B 2.9 18:36:18 10° NNW 18:44:00 70° ENE 18:47:43 31° SE
Cosmos 2082 Rocket 2.2 18:41:58 17° S 18:46:22 58° ESE 18:51:58 10° NNE
Cosmos 1452 Rocket 3.6 18:42:52 10° SSW 18:48:04 74° WNW 18:53:18 10° NNE
DELTA 2 R/B (1) 3.4 18:43:39 10° WSW 18:49:13 79° SSE 18:52:58 21° ENE
Cosmos 1802 Rocket 3.9 18:44:00 11° S 18:50:04 87° W 18:56:15 10° N
Cosmos 1741 Rocket 4.0 18:49:38 10° NNW 18:54:56 69° ENE 18:56:27 45° SE
CZ-4B R/B 4.3 18:57:05 29° ENE 18:57:21 29° ENE 19:01:27 10° N
SL-08 R/B 4.1 18:52:59 10° N 18:57:40 52° WNW 19:02:15 10° SSW
Cosmos 968 Rocket 3.9 18:55:35 10° NNW 19:00:44 59° WSW 19:02:59 32° S
NOSS 3-3 (A) 3.3 19:00:23 24° SSW 19:03:20 71° ESE 19:08:57 10° NE
MOS 1-B 4.3 19:01:31 40° SSE 19:03:46 86° ENE 19:09:35 10° NNW
Cosmos 1302 Rocket 3.9 19:01:10 23° SSW 19:04:26 88° WNW 19:09:37 10° NNE
YAOGAN 11 4.5 19:01:16 10° N 19:05:38 63° WNW 19:08:05 25° SSW
Terra 3.2 19:07:54 18° SSW 19:10:40 32° W 19:14:53 10° NNW
Meteor 2-12 Rocket 4.4 19:05:55 10° N 19:12:00 71° E 19:13:35 50° SSE
Cosmos 1697 Rocket 3.4 19:06:40 10° NW 19:12:00 46° WSW 19:14:22 29° SSW
COSMOS 2406 3.6 19:12:47 42° E 19:12:47 42° E 19:17:40 10° NE
SL-16 R/B 4.0 19:14:09 10° NNE 19:17:50 17° NE 19:18:45 17° ENE
SPOT 3 Rocket 3.4 19:21:38 65° ESE 19:22:01 68° ENE 19:27:08 10° N
Cosmos 2228 3.3 19:22:11 56° WSW 19:22:32 59° W 19:26:37 10° N
Cosmos 1782 3.9 19:26:57 34° W 19:26:59 34° W 19:30:13 10° NNW
Cosmos 1850 Rocket 4.5 19:23:22 10° NNW 19:28:22 52° WSW 19:29:22 45° SW
USA 186 4.5 19:30:34 16° NW 19:30:34 16° NW 19:31:20 10° NW
BREEZE-M DEB (TANK) 4.1 19:26:03 10° WNW 19:29:03 42° SW 19:29:03 42° SW
NOSS 3-3 (C) 3.5 19:30:17 46° SW 19:31:50 83° WNW 19:37:37 10° NNE
Cosmos 2333 Rocket 3.9 19:28:59 10° N 19:33:09 20° NE 19:33:40 20° ENE
Cosmos 2233 Rocket 4.3 19:29:57 29° SSW 19:33:10 63° W 19:39:19 10° N
CZ-4B R/B 4.3 19:38:49 28° NNW 19:38:49 28° NNW 19:40:34 10° NNW
Cosmos 1626 Rocket 4.4 19:34:35 10° N 19:37:42 42° NNE 19:37:42 42° NNE
Okean O Rocket 2.9 19:38:44 31° WSW 19:39:09 32° W 19:43:00 10° NNW
Cosmos 1980 Rocket 2.3 19:35:04 10° NNW 19:40:41 63° WSW 19:41:19 59° SW
IRS-1C Rocket 4.0 19:44:24 85° NE 19:44:24 85° NE 19:49:38 10° NNW
ISS -0.4 19:45:41 10° NW 19:47:08 12° NNW 19:48:36 10° N
Tsikada Rocket 4.2 19:44:24 10° NNW 19:50:27 61° W 19:51:42 51° SW
Ariane Rocket 3.1 19:53:16 73° NW 19:53:16 73° NW 19:57:56 10° NNW
Okean-O 4.4 19:53:00 23° WSW 19:53:22 23° W 19:56:53 10° NW
Geosat 4.2 19:48:38 10° NNE 19:52:46 62° NNE 19:52:46 62° NNE
Cosmos 2098 Rocket 4.4 19:58:18 37° NE 19:58:18 37° NE 20:01:18 10° NNE
Cosmos 2360 Rocket 3.9 20:02:29 10° N 20:06:40 22° NE 20:06:40 22° NE
Gbstr 26 Del rocket 4.4 20:03:44 10° NW 20:06:35 36° NW 20:06:35 36° NW
USA 234 3.5 20:05:19 10° NE 20:10:18 52° ENE 20:10:18 52° ENE
Cosmos 2219 Rocket 4.1 20:19:45 10° NNE 20:23:33 18° NE 20:23:33 18° NE
Cosmos 1464 Rocket 4.1 20:33:46 69° NW 20:33:46 69° NW 20:39:17 10° N
ATLAS 3B R/B 4.4 20:28:32 10° WNW 20:33:55 22° WSW 20:34:58 21° WSW
Cosmos 2322 Rocket 3.3 20:29:55 10° N 20:34:09 36° NE 20:34:09 36° NE
Cosmos 2278 4.5 20:49:45 10° NNW 20:53:50 48° NNW 20:53:50 48° NNW
SL-16 R/B 3.2 20:56:47 10° NNW 21:00:34 42° NW 21:00:34 42° NW
Cosmos 2333 Rocket 3.5 21:12:13 10° NNW 21:15:41 36° NW 21:15:41 36° NW
NOSS 3-4 (A) 4.1 21:36:11 10° NNW 21:42:12 68° NW 21:42:12 68° NW
NOSS 3-4 (C) 4.1 21:36:48 10° NNW 21:42:52 68° NW 21:42:52 68° NW
Cosmos 2360 Rocket 3.8 21:45:34 10° NNW 21:48:24 29° NW 21:48:24 29° NW
USA 234 4.5 21:48:41 10° NNE 21:54:31 36° NNW 21:57:36 24° WNW
Cosmos 2219 Rocket 3.7 22:02:23 10° NNW 22:05:14 30° NW 22:05:14 30° NW
SeaSat 1 4.2 22:18:14 29° N 22:18:14 29° N 22:20:57 10° N
Cosmos 2322 Rocket 4.4 22:14:23 10° NW 22:15:56 17° WNW 22:15:56 17° WNW
CZ-2C R/B 4.4 22:21:42 10° N 22:25:36 39° NNW 22:25:36 39° NNW
COSMOS 2428 3.8 22:30:03 10° NNW 22:33:44 41° N 22:33:44 41° N
Cosmos 2237 Rocket 3.7 22:31:54 10° N 22:36:47 29° ENE 22:36:55 29° ENE
Cosmos 2227 Rocket 3.8 22:45:01 27° ENE 22:45:01 27° ENE 22:48:14 10° NE
CZ-2C R/B 4.3 22:56:34 26° NW 22:56:34 26° NW 22:58:59 10° NNW
ACS3 Solar Sail 2.2 22:48:20 10° NNE 22:53:00 56° NNE 22:53:00 56° NNE
Cosmos 2263 Rocket 3.7 23:03:35 27° E 23:03:35 27° E 23:07:07 10° NE
Cosmos 2297 Rocket 3.2 23:18:41 40° NNW 23:18:41 40° NNW 23:22:55 10° N
IDEFIX/ARIANE 42P 3.1 23:29:24 10° NNE 23:33:38 55° NE 23:33:38 55° NE
Lacrosse 4 Rocket 3.5 23:37:27 22° N 23:37:27 22° N 23:39:06 10° NNE
Atlas Centaur 2 4.3 23:38:27 22° SE 23:38:27 22° SE 23:42:39 10° ESE
MSX 3.9 23:34:07 10° NNE 23:39:28 73° ENE 23:39:28 73° ENE
Cosmos 1553 Rocket 4.0 23:41:26 74° NW 23:41:26 74° NW 23:47:29 10° N
Nimbus 7 Rocket 4.4 23:43:58 10° N 23:49:46 72° NW 23:49:46 72° NW
H-2A R/B 4.3 23:49:57 10° NE 23:53:34 18° E 23:55:53 14° ESE
